Location: Blankensee
(53.5126°N, 14.3055°E)
Time: 18:24:24
(UTC+00:00)

SL-16 R/B - Pass Details

Date: 08 August 2020
Orbit: 985 x 1007 km, 99.5° (Epoch: 19 September)

Event Time Altitude Azimuth Distance (km) Brightness Sun altitude
Exits shadow 02:45:05 - 245° (WSW) 3,066 4.5 -6.5°
Reaches altitude 10° 02:46:49 10° 259° (WSW) 2,786 4.3 -6.3°
Maximum altitude 02:49:01 12° 280° (W) 2,652 4.4 -6.0°
Drops below altitude 10° 02:51:13 10° 301° (WNW) 2,791 4.7 -5.7°
Sets 02:55:48 0° 331° (NNW) 3,744 5.7 -5.2°
